Location: Poughquag
(41.6090°N, 73.6820°W)
Time: 03:39:18
(UTC-04:00)

Transit 4A - Pass Details

Date: 04 June 2020
Orbit: 866 x 978 km, 66.8° (Epoch: 06 July)

Event Time Altitude Azimuth Distance (km) Brightness Sun altitude
Rises 09:22:50 0° 335° (NNW) 3,564 10.7 42.4°
Reaches altitude 10° 09:25:32 10° 344° (NNW) 2,637 10.2 42.9°
Maximum altitude 09:31:13 37° 51° (NE) 1,427 10.0 43.9°
Drops below altitude 10° 09:36:59 10° 117° (ESE) 2,691 11.3 45.0°
Sets 09:39:46 0° 126° (SE) 3,646 11.6 45.5°
